Flag for Russia Weather past 2 weeks in Sochi, Russia

Now
70 °F

Clear.


Feels Like: 70 °F
Forecast: 72 / 88 °F
Wind: 8 mph from East

Location: Adler

Current Time: Jul 30, 2014 at 3:55:56 AM

Latest Report: Jul 30, 2014 at 3:30 AM


Visibility: N/A

Pressure: 29.77 "Hg

Humidity: 78%

Dew point: 63 °F

Location of SochiLocation

Historic Weather in Sochi — Graph

°F

Sochi temperature yesterday

Maximum temperature yesterday: 84 °F (at 12:30 PM)
Minimum temperature yesterday: 70 °F (at 2:30 AM)
Average temperature yesterday: 77 °F

Past Weeks' High & Low Weather Summary

 TemperatureHumidityPressure
High88 °F (Jul 16, 3:00 PM)94% (Jul 19, 3:00 AM)29.89 "Hg (Jul 19, 3:00 AM)
Low66 °F (Jul 22, 3:00 AM)38% (Jul 24, 5:30 PM)29.59 "Hg (Jul 24, 7:00 PM)
Average78 °F72%29.75 "Hg
* Reported Jul 15 2:00 AM — Jul 30 2:30 AM, Sochi, Weather by CustomWeather, © 2014

Note: Actual official high and low records may vary slightly from our data, if they occured in-between our weather recording intervals... More about our weather records

Advertising

Sochi weather history for previous 24 hours

 ConditionsComfort  
Time TempWeatherWind HumidityBarometerVisibility
2:30 AM
Jul 30
72 °FClear.6 mph73%29.77 "HgN/A
2:00 AM72 °FClear.8 mph78%29.77 "HgN/A
1:30 AM72 °FClear.6 mph78%29.77 "HgN/A
1:00 AM73 °FClear.8 mph74%29.77 "HgN/A
12:30 AM73 °FClear.8 mph78%29.77 "HgN/A
12:00 AM72 °FClear.3 mph83%29.77 "HgN/A
11:30 PM
Jul 29
73 °FClear.3 mph78%29.77 "HgN/A
11:00 PM73 °FClear.8 mph78%29.77 "HgN/A
10:30 PM75 °FClear.8 mph69%29.77 "HgN/A
10:00 PM75 °FClear.3 mph74%29.77 "HgN/A
9:30 PM77 °FSunny.1 mph79%29.77 "HgN/A
9:00 PM79 °FSunny.1 mph74%29.77 "HgN/A
8:30 PM81 °FSunny.3 mph70%29.77 "HgN/A
8:00 PM81 °FPassing clouds.3 mph70%29.77 "HgN/A
7:30 PM82 °FPassing clouds.6 mph66%29.77 "HgN/A
7:00 PM82 °FPassing clouds.8 mph66%29.77 "HgN/A
6:30 PM82 °FPassing clouds.8 mph58%29.77 "HgN/A
6:00 PM82 °FPassing clouds.8 mph62%29.77 "HgN/A
5:30 PM82 °FPassing clouds.8 mph62%29.77 "HgN/A
5:00 PM82 °FPassing clouds.10 mph62%29.80 "HgN/A
4:30 PM84 °FPassing clouds.10 mph58%29.80 "HgN/A
4:00 PM84 °FPassing clouds.8 mph58%29.80 "HgN/A
3:30 PM84 °FPassing clouds.8 mph55%29.80 "HgN/A
3:00 PM84 °FPassing clouds.8 mph55%29.80 "HgN/A
2:30 PM84 °FPassing clouds.8 mph55%29.80 "HgN/A
2:00 PM84 °FPassing clouds.6 mph51%29.83 "HgN/A
1:30 PM84 °FPassing clouds.6 mph51%29.83 "Hg6 mi
1:00 PM82 °FPassing clouds.6 mph55%29.83 "HgN/A
12:30 PM84 °FPassing clouds.6 mph51%29.83 "HgN/A
12:00 PM82 °FPassing clouds.3 mph55%29.83 "HgN/A
11:30 AM82 °FPassing clouds.6 mph48%29.83 "HgN/A
11:00 AM82 °FPassing clouds.3 mph51%29.83 "HgN/A
10:30 AM82 °FPassing clouds.No wind51%29.83 "Hg6 mi
10:00 AM81 °FScattered clouds.1 mph54%29.83 "HgN/A
9:30 AM79 °FScattered clouds.8 mph58%29.83 "HgN/A
9:00 AM77 °FScattered clouds.10 mph61%29.83 "HgN/A
8:30 AM75 °FScattered clouds.10 mph65%29.83 "HgN/A
8:00 AM73 °FScattered clouds.10 mph65%29.83 "HgN/A
7:30 AM72 °FPartly sunny.6 mph69%29.83 "HgN/A
7:00 AM72 °FPassing clouds.10 mph69%29.83 "HgN/A
6:30 AM70 °FPassing clouds.13 mph69%29.83 "HgN/A
6:00 AM70 °FPassing clouds.13 mph73%29.83 "HgN/A
5:30 AM70 °FPassing clouds.8 mph73%29.83 "HgN/A
5:00 AM70 °FPassing clouds.10 mph73%29.83 "HgN/A
4:30 AM70 °FPassing clouds.13 mph73%29.83 "HgN/A
4:00 AM70 °FPassing clouds.10 mph73%29.83 "HgN/A
3:30 AM72 °FPassing clouds.10 mph69%29.83 "HgN/A
3:00 AM72 °FPassing clouds.13 mph69%29.86 "HgN/A
Weather by CustomWeather, © 2014

See weather overviewHow to use our weather pages